GFSSGP_prec_pwat_132.txt.gz
Precipitable_Water
2.04 2.17 2.01 1.67 0.98 0.84 0.66 0.74 0.89 0.90 0.95 1.09 1.10 1.05 0.96 1.03 0.93 0.83 1.52 1.63 1.68 1.73 1.85 1.92 1.92 1.93 1.92 1.83 1.85 1.93 1.86 1.56 1.69 1.69 1.75 1.74 1.73 1.76 1.79 1.76 1.79 1.82 2.00 2.07 2.08 2.05 2.07 2.15 2.21
2.03 2.03 1.82 1.35 0.80 0.61 0.65 0.83 0.81 0.94 1.04 1.18 1.19 1.12 1.05 0.92 1.18 1.31 1.40 1.62 1.72 1.79 1.87 1.90 1.90 1.91 1.86 1.76 1.74 1.71 1.40 1.50 1.76 1.76 1.81 1.81 1.81 1.88 1.85 1.81 1.82 1.93 1.98 2.05 2.14 2.16 2.23 2.20 2.16
2.02 1.94 1.42 1.09 0.85 0.65 0.67 0.83 0.88 0.99 1.10 1.18 1.15 1.28 1.22 1.03 1.27 1.37 1.57 1.65 1.73 1.77 1.85 1.86 1.87 1.87 1.84 1.73 1.74 1.51 1.70 1.60 1.74 1.84 1.84 1.91 1.91 1.94 1.90 1.87 1.89 1.95 1.99 2.03 2.07 2.06 2.02 1.94 1.90
1.86 1.67 1.42 0.98 0.80 0.82 0.85 0.86 0.94 0.98 1.12 1.23 1.20 1.07 1.26 1.40 1.35 1.50 1.62 1.63 1.66 1.70 1.80 1.77 1.83 1.89 1.84 1.80 1.68 1.75 1.86 1.88 1.88 1.89 1.89 1.92 1.96 1.88 1.95 2.00 2.05 2.10 2.11 2.03 2.03 2.07 2.05 1.87 1.68
1.78 1.45 1.01 0.99 0.85 0.90 0.97 0.97 1.01 1.00 1.07 1.11 1.14 0.96 1.08 1.43 1.55 1.57 1.59 1.66 1.63 1.69 1.74 1.76 1.72 1.87 2.02 1.60 1.71 1.88 1.92 1.90 1.92 1.93 1.84 1.77 1.76 1.72 1.90 1.98 2.09 2.15 2.14 2.04 2.06 2.05 1.86 1.72 1.61
1.43 1.35 0.95 0.89 0.92 1.00 1.05 1.07 1.06 1.06 1.11 1.08 1.03 1.02 1.14 1.49 1.47 1.55 1.60 1.63 1.68 1.72 1.74 1.64 1.69 1.72 1.92 1.69 1.82 1.83 1.80 1.77 1.78 1.84 1.82 1.77 1.77 1.79 1.66 1.77 2.03 2.10 2.07 2.08 1.92 1.80 1.59 1.47 1.46
1.34 1.25 1.08 1.01 0.96 0.97 1.10 1.24 1.07 1.07 1.05 1.01 1.16 0.94 1.15 1.35 1.53 1.59 1.61 1.59 1.62 1.66 1.70 1.72 1.81 1.77 1.83 1.98 1.73 1.83 1.87 1.95 1.88 1.81 1.78 1.78 1.78 1.70 1.62 1.67 1.75 1.85 2.00 1.99 1.92 1.66 1.58 1.49 1.37
1.41 1.37 1.12 1.11 1.07 1.03 1.27 1.26 1.19 1.10 0.99 1.19 1.19 0.92 0.95 1.32 1.54 1.60 1.60 1.58 1.64 1.65 1.64 1.85 1.82 1.86 1.88 1.93 1.86 1.95 2.01 2.03 1.93 1.89 1.80 1.72 1.72 1.53 1.46 1.54 1.71 1.76 1.87 1.91 1.80 1.61 1.54 1.49 1.44
1.55 1.17 1.02 1.10 1.12 1.19 1.35 1.18 1.29 1.25 1.07 1.09 1.16 1.08 1.23 1.39 1.51 1.52 1.53 1.53 1.50 1.65 1.72 1.94 1.74 1.88 1.97 1.85 1.92 1.96 2.04 1.94 1.83 1.76 1.77 1.84 1.66 1.60 1.65 1.60 1.62 1.72 1.77 1.73 1.66 1.57 1.49 1.49 1.51
1.25 1.09 1.13 1.32 1.32 1.24 1.34 1.28 1.20 1.10 1.05 1.05 1.10 1.23 1.33 1.36 1.41 1.47 1.39 1.26 1.38 1.55 1.71 1.90 1.85 1.91 1.90 1.91 1.93 1.96 1.98 2.01 1.93 1.90 1.78 1.63 1.64 1.73 1.62 1.58 1.65 1.69 1.69 1.67 1.56 1.50 1.45 1.62 1.64
1.13 1.10 1.31 1.37 1.40 1.37 1.39 1.34 1.34 1.05 0.87 0.99 1.04 1.11 1.22 1.28 1.37 1.39 1.35 1.28 1.43 1.55 1.67 1.78 1.87 1.93 1.92 1.84 1.91 1.91 1.91 2.03 1.98 1.81 1.68 1.63 1.63 1.69 1.63 1.56 1.65 1.61 1.63 1.56 1.48 1.49 1.58 1.56 1.55
1.03 1.25 1.29 1.44 1.47 1.41 1.35 1.42 1.17 1.15 1.04 1.06 1.16 1.20 1.17 1.23 1.35 1.39 1.32 1.39 1.50 1.58 1.62 1.82 1.87 1.91 1.90 1.86 1.82 1.92 1.93 1.87 1.74 1.71 1.65 1.61 1.67 1.73 1.70 1.63 1.61 1.60 1.64 1.49 1.56 1.49 1.53 1.51 1.44
0.95 1.13 1.24 1.44 1.50 1.49 1.48 1.38 1.26 1.18 1.22 1.14 1.16 1.17 1.22 1.31 1.38 1.42 1.43 1.48 1.54 1.53 1.63 1.76 1.83 1.86 1.85 1.82 1.86 1.85 1.82 1.70 1.71 1.63 1.64 1.74 1.73 1.71 1.70 1.66 1.65 1.66 1.65 1.56 1.57 1.53 1.55 1.44 1.36
1.01 1.03 1.14 1.32 1.43 1.47 1.32 1.40 1.44 1.44 1.33 1.13 1.16 1.17 1.25 1.30 1.35 1.36 1.38 1.41 1.48 1.51 1.60 1.74 1.80 1.88 1.87 1.83 1.84 1.78 1.81 1.67 1.69 1.60 1.64 1.77 1.75 1.74 1.70 1.64 1.64 1.65 1.67 1.60 1.59 1.57 1.53 1.43 1.32
0.99 0.88 1.01 1.10 1.29 1.39 1.48 1.27 1.27 1.53 1.41 1.14 1.17 1.20 1.27 1.33 1.40 1.37 1.39 1.41 1.51 1.54 1.62 1.68 1.76 1.85 1.84 1.82 1.83 1.75 1.75 1.66 1.64 1.58 1.73 1.74 1.77 1.74 1.79 1.73 1.69 1.68 1.63 1.58 1.55 1.56 1.46 1.37 1.27
0.88 0.86 0.73 0.96 1.10 1.37 1.44 1.13 1.41 1.51 1.40 1.20 1.17 1.16 1.19 1.29 1.39 1.45 1.42 1.44 1.48 1.50 1.63 1.76 1.76 1.75 1.75 1.78 1.76 1.70 1.71 1.70 1.67 1.61 1.64 1.77 1.90 1.85 1.76 1.65 1.69 1.70 1.66 1.64 1.60 1.49 1.39 1.35 1.21
0.74 0.68 0.75 0.87 1.09 1.12 1.26 1.16 1.42 1.51 1.50 1.41 1.21 1.16 1.16 1.22 1.36 1.47 1.44 1.44 1.47 1.49 1.66 1.73 1.77 1.71 1.72 1.77 1.74 1.67 1.68 1.63 1.63 1.63 1.69 1.85 1.89 1.86 1.72 1.69 1.64 1.80 1.68 1.63 1.56 1.42 1.38 1.26 1.19
0.54 0.55 0.70 0.85 0.99 1.02 1.01 1.16 1.39 1.46 1.45 1.45 1.35 1.16 1.12 1.16 1.24 1.44 1.45 1.43 1.50 1.53 1.73 1.84 1.87 1.76 1.71 1.71 1.65 1.60 1.60 1.60 1.59 1.60 1.68 1.78 1.86 1.83 1.78 1.68 1.66 1.81 1.71 1.64 1.57 1.41 1.39 1.31 1.24
0.60 0.59 0.65 0.83 1.09 0.92 0.90 1.02 1.26 1.44 1.47 1.43 1.45 1.30 1.08 1.16 1.31 1.43 1.48 1.43 1.44 1.49 1.60 1.69 1.73 1.72 1.64 1.52 1.44 1.46 1.43 1.49 1.56 1.64 1.68 1.75 1.85 1.77 1.69 1.65 1.63 1.75 1.64 1.65 1.58 1.49 1.40 1.30 1.34
0.54 0.62 0.63 0.79 0.94 0.89 0.85 0.91 1.24 1.35 1.46 1.44 1.40 1.32 1.15 1.15 1.24 1.34 1.42 1.41 1.42 1.39 1.45 1.69 1.68 1.68 1.64 1.59 1.56 1.52 1.50 1.55 1.62 1.66 1.65 1.80 1.73 1.75 1.68 1.63 1.56 1.67 1.65 1.66 1.65 1.57 1.41 1.35 1.36
0.54 0.58 0.65 0.67 0.82 0.89 0.83 0.80 1.03 1.26 1.45 1.50 1.44 1.36 1.24 1.12 1.17 1.27 1.35 1.37 1.41 1.38 1.40 1.57 1.59 1.63 1.64 1.64 1.69 1.68 1.68 1.67 1.52 1.50 1.53 1.65 1.70 1.67 1.61 1.61 1.59 1.59 1.63 1.63 1.66 1.58 1.49 1.34 1.36
0.48 0.62 0.69 0.66 0.63 0.62 0.87 0.58 0.87 1.07 1.23 1.36 1.30 1.37 1.19 1.14 1.19 1.24 1.34 1.36 1.37 1.41 1.41 1.45 1.61 1.62 1.57 1.59 1.52 1.51 1.43 1.39 1.43 1.46 1.47 1.57 1.58 1.60 1.54 1.57 1.58 1.53 1.58 1.60 1.64 1.58 1.60 1.50 1.34
0.54 0.65 0.69 0.67 0.61 0.62 0.70 0.68 0.85 1.01 1.09 1.22 1.33 1.30 1.21 1.10 1.14 1.19 1.31 1.41 1.41 1.46 1.45 1.40 1.50 1.64 1.55 1.56 1.57 1.49 1.44 1.48 1.49 1.50 1.45 1.58 1.59 1.58 1.56 1.53 1.47 1.41 1.44 1.57 1.61 1.52 1.51 1.56 1.45
0.66 0.61 0.65 0.64 0.60 0.42 0.64 0.68 0.77 0.85 1.01 1.18 1.36 1.40 1.26 1.16 1.15 1.18 1.31 1.44 1.45 1.46 1.49 1.47 1.44 1.53 1.59 1.64 1.63 1.52 1.41 1.45 1.45 1.53 1.49 1.50 1.56 1.61 1.60 1.55 1.48 1.42 1.36 1.46 1.56 1.53 1.54 1.58 1.52
0.53 0.48 0.40 0.37 0.41 0.42 0.68 0.68 0.79 0.93 1.02 1.12 1.28 1.36 1.38 1.38 1.22 1.15 1.22 1.31 1.43 1.40 1.44 1.46 1.43 1.44 1.60 1.58 1.58 1.63 1.63 1.58 1.57 1.60 1.52 1.53 1.56 1.58 1.61 1.61 1.60 1.56 1.50 1.51 1.57 1.56 1.54 1.52 1.61
0.43 0.45 0.38 0.34 0.43 0.54 0.67 0.59 0.82 0.93 1.05 1.12 1.20 1.33 1.44 1.49 1.24 1.11 1.21 1.27 1.40 1.44 1.45 1.45 1.38 1.37 1.49 1.56 1.61 1.67 1.75 1.74 1.65 1.59 1.58 1.59 1.60 1.65 1.73 1.68 1.66 1.63 1.58 1.49 1.52 1.52 1.53 1.56 1.59
0.44 0.40 0.53 0.52 0.62 0.53 0.60 0.73 0.90 0.85 0.99 1.12 1.18 1.26 1.39 1.49 1.37 1.15 1.23 1.32 1.38 1.44 1.52 1.47 1.41 1.40 1.44 1.54 1.58 1.65 1.73 1.69 1.67 1.74 1.69 1.66 1.67 1.68 1.74 1.76 1.68 1.68 1.66 1.56 1.52 1.47 1.48 1.56 1.56
0.60 0.61 0.46 0.46 0.44 0.44 0.52 0.58 0.66 0.68 0.85 1.03 1.10 1.25 1.38 1.55 1.53 1.34 1.31 1.35 1.38 1.46 1.53 1.56 1.57 1.44 1.47 1.53 1.60 1.64 1.73 1.74 1.77 1.80 1.74 1.68 1.73 1.68 1.73 1.74 1.70 1.67 1.65 1.62 1.49 1.53 1.63 1.53 1.48
0.55 0.53 0.53 0.56 0.55 0.51 0.50 0.64 0.69 0.80 0.85 0.99 1.07 1.23 1.42 1.54 1.60 1.55 1.41 1.36 1.37 1.47 1.51 1.53 1.57 1.57 1.50 1.53 1.60 1.69 1.76 1.74 1.83 1.87 1.85 1.84 1.87 1.86 1.75 1.71 1.66 1.68 1.66 1.68 1.65 1.58 1.57 1.55 1.50
0.75 0.72 0.59 0.47 0.49 0.60 0.63 0.55 0.88 0.87 0.97 1.02 1.06 1.20 1.39 1.54 1.66 1.63 1.54 1.44 1.43 1.46 1.51 1.50 1.52 1.54 1.57 1.54 1.57 1.62 1.70 1.77 1.80 1.82 1.86 1.88 1.92 1.97 1.97 1.92 1.83 1.83 1.77 1.77 1.74 1.65 1.67 1.63 1.51

GFSSGP_prec_pwat_135.txt.gz
Precipitable_Water
1.98 2.16 1.90 1.56 1.17 0.97 0.69 0.77 0.93 0.88 0.92 1.02 1.06 1.06 0.92 1.09 1.17 0.85 1.55 1.63 1.70 1.80 1.89 1.96 2.01 2.01 2.00 1.99 2.05 1.90 1.55 1.69 1.75 1.77 1.77 1.79 1.82 1.81 1.80 1.85 1.88 1.93 1.94 1.94 1.91 1.99 2.05 2.08 2.11
2.02 2.00 1.71 1.48 0.94 0.68 0.69 0.85 0.84 1.01 1.07 1.16 1.11 1.13 1.08 0.95 1.24 1.30 1.41 1.65 1.80 1.83 1.87 1.89 1.96 1.88 1.82 1.86 1.86 1.51 1.72 1.76 1.80 1.81 1.79 1.84 1.83 1.81 1.81 1.93 1.97 2.05 2.13 2.10 2.12 2.14 2.18 2.16 2.13
2.05 1.90 1.34 1.47 0.91 0.69 0.69 0.87 0.92 1.01 1.16 1.18 1.12 1.32 1.17 1.07 1.33 1.39 1.57 1.68 1.83 2.09 2.00 1.85 1.95 1.86 1.79 1.68 1.47 1.48 1.67 1.77 1.78 1.83 1.87 1.94 1.92 1.83 1.81 1.90 1.98 2.01 2.07 2.05 2.10 2.08 2.00 1.95 1.91
1.90 1.64 1.29 0.98 0.87 0.90 0.82 0.90 0.97 0.99 1.15 1.22 1.19 1.04 1.23 1.42 1.43 1.51 1.60 1.74 1.76 1.77 1.80 1.84 1.88 1.85 1.80 1.58 1.75 1.74 1.73 1.81 1.85 1.84 1.95 1.96 1.92 1.97 1.96 2.03 2.04 2.01 2.00 2.01 2.03 1.94 1.79 1.67 1.61
1.80 1.47 1.08 1.13 0.76 0.92 0.93 0.97 1.02 1.02 1.20 1.10 1.21 1.03 1.13 1.41 1.55 1.58 1.58 1.63 1.72 1.76 1.68 1.79 1.93 1.90 1.71 1.67 1.87 1.91 1.91 1.87 1.89 1.80 1.80 1.83 1.80 1.98 2.04 2.09 2.16 2.03 2.01 2.11 2.01 1.82 1.71 1.66 1.57
1.44 1.32 1.09 0.89 0.88 0.94 0.98 1.08 1.05 1.18 1.09 1.06 1.06 1.08 1.18 1.46 1.48 1.53 1.63 1.61 1.75 1.73 1.65 1.66 1.78 1.97 1.74 1.83 1.89 1.91 1.83 1.82 1.85 1.84 1.77 1.77 1.74 1.81 2.09 2.17 2.18 2.15 2.01 1.89 1.81 1.61 1.57 1.56 1.49
1.41 1.26 1.10 1.04 0.95 1.03 1.10 1.20 1.03 1.12 1.12 1.04 1.16 1.01 1.21 1.36 1.50 1.57 1.59 1.62 1.68 1.73 1.64 1.63 1.71 1.93 1.84 1.83 1.83 1.77 1.83 1.83 1.82 1.80 1.74 1.75 1.69 1.63 1.78 1.93 2.04 2.02 2.01 1.85 1.63 1.58 1.47 1.36 1.33
1.50 1.40 1.28 1.14 1.10 1.09 1.24 1.28 1.16 1.23 1.08 1.17 1.35 0.97 1.04 1.35 1.52 1.56 1.56 1.54 1.59 1.65 1.74 1.81 1.69 1.79 1.85 1.82 1.81 1.93 1.85 1.89 1.84 1.76 1.71 1.65 1.47 1.49 1.64 1.69 1.86 2.00 1.94 1.81 1.58 1.51 1.45 1.39 1.32
1.58 1.18 1.08 1.16 1.24 1.22 1.31 1.19 1.25 1.19 1.07 1.11 1.09 1.16 1.31 1.43 1.53 1.49 1.46 1.53 1.56 1.59 1.79 1.91 1.86 1.98 1.91 1.89 1.89 1.95 1.99 1.86 1.78 1.74 1.85 1.80 1.61 1.65 1.71 1.72 1.76 1.85 1.80 1.65 1.52 1.43 1.49 1.48 1.25
1.35 1.20 1.16 1.29 1.35 1.34 1.38 1.48 1.23 1.09 1.09 1.02 1.08 1.24 1.34 1.39 1.43 1.42 1.41 1.36 1.46 1.65 1.64 1.86 1.80 1.89 1.87 1.89 1.98 1.98 2.04 1.97 1.84 1.76 1.76 1.73 1.83 1.66 1.59 1.59 1.68 1.67 1.60 1.49 1.42 1.47 1.65 1.82 1.66
1.23 1.14 1.35 1.40 1.41 1.40 1.39 1.29 1.27 1.16 1.04 1.06 1.06 1.15 1.26 1.31 1.40 1.43 1.37 1.31 1.43 1.60 1.67 1.94 1.91 1.94 1.93 1.88 1.92 1.92 1.99 1.94 1.89 1.74 1.68 1.55 1.56 1.63 1.49 1.55 1.61 1.55 1.58 1.54 1.46 1.61 1.77 1.70 1.65
1.05 1.26 1.33 1.45 1.43 1.40 1.35 1.50 1.22 1.30 1.18 1.17 1.20 1.26 1.24 1.28 1.36 1.40 1.28 1.35 1.49 1.57 1.73 1.78 1.91 2.27 1.83 1.89 1.91 1.81 1.95 1.91 1.77 1.67 1.60 1.64 1.65 1.67 1.67 1.72 1.67 1.63 1.63 1.44 1.69 1.56 1.59 1.52 1.51
1.01 1.12 1.23 1.38 1.45 1.44 1.53 1.38 1.24 1.14 1.15 1.17 1.19 1.21 1.22 1.27 1.36 1.42 1.37 1.47 1.54 1.57 1.72 1.82 1.88 1.95 1.94 1.87 1.87 1.95 1.86 1.79 1.73 1.62 1.60 1.93 1.89 1.63 1.68 1.57 1.86 1.72 1.59 1.51 1.54 1.60 1.61 1.42 1.38
1.18 1.07 1.13 1.28 1.39 1.43 1.39 1.41 1.37 1.26 1.35 1.15 1.11 1.14 1.24 1.35 1.37 1.39 1.40 1.46 1.55 1.64 1.76 1.87 1.84 1.84 1.89 1.98 1.95 1.86 1.81 1.70 1.67 1.59 1.63 2.07 1.70 2.00 1.61 1.60 1.64 1.59 1.65 1.66 1.64 1.80 1.56 1.40 1.30
0.99 0.88 1.00 1.06 1.25 1.26 1.35 1.21 1.29 1.44 1.53 1.13 1.14 1.17 1.26 1.45 1.36 1.33 1.42 1.48 1.51 1.60 1.73 1.70 1.82 1.91 1.82 1.84 1.82 1.84 1.72 1.68 1.59 1.68 1.70 1.74 1.81 1.73 1.65 1.63 1.84 1.67 1.57 1.53 1.52 1.60 1.49 1.37 1.26
0.81 0.87 0.70 1.08 1.04 1.20 1.22 1.02 1.37 1.46 1.42 1.16 1.18 1.33 1.29 1.29 1.35 1.43 1.42 1.41 1.54 1.65 1.65 1.68 1.75 1.86 1.84 1.86 1.80 1.76 1.68 1.67 1.61 1.64 1.74 1.78 1.85 1.79 1.98 1.59 1.65 1.59 1.69 1.61 1.63 1.54 1.44 1.33 1.21
0.77 0.67 0.93 0.92 1.13 1.12 1.12 1.18 1.39 1.47 1.36 1.30 1.26 1.20 1.17 1.30 1.44 1.45 1.42 1.40 1.47 1.61 1.68 1.71 1.76 1.74 1.80 1.84 1.79 1.74 1.75 1.70 1.66 1.66 1.74 1.93 1.91 1.83 1.90 1.76 1.68 1.77 1.60 1.61 1.60 1.48 1.43 1.28 1.20
0.66 0.62 0.74 0.81 1.06 1.06 1.00 1.09 1.34 1.41 1.37 1.30 1.33 1.37 1.23 1.20 1.35 1.37 1.39 1.47 1.45 1.54 1.77 1.80 1.77 1.74 1.80 1.75 1.76 1.71 1.70 1.70 1.69 1.65 1.83 1.83 1.95 1.74 1.88 1.71 1.64 1.79 1.72 1.54 1.72 1.43 1.48 1.33 1.29
0.74 0.71 0.69 1.04 0.98 1.01 0.97 1.01 1.20 1.39 1.39 1.31 1.42 1.33 1.24 1.37 1.33 1.37 1.46 1.43 1.47 1.58 1.78 1.85 1.77 1.75 1.79 1.66 1.59 1.54 1.49 1.58 1.59 1.69 1.85 1.77 1.93 1.82 1.82 1.70 1.57 2.29 1.82 1.72 1.48 1.45 1.37 1.36 1.42
0.64 0.57 0.67 0.69 0.86 0.85 0.94 0.87 1.13 1.28 1.32 1.38 1.39 1.35 1.26 1.20 1.44 1.25 1.43 1.36 1.41 1.52 1.74 1.87 1.79 1.69 1.65 1.61 1.56 1.57 1.54 1.54 1.55 1.79 1.68 1.73 1.80 1.78 1.71 1.73 1.64 1.69 1.59 1.64 1.59 1.65 1.54 1.45 1.36
0.50 0.54 0.66 0.72 0.93 0.77 0.81 0.80 0.95 1.18 1.44 1.49 1.48 1.48 1.31 1.29 1.42 1.42 1.39 1.37 1.37 1.37 1.55 1.70 1.76 1.71 1.68 1.63 1.62 1.58 1.59 1.60 1.68 1.71 1.60 1.69 1.75 1.76 1.76 1.66 1.75 1.62 1.93 1.56 1.60 1.61 1.62 1.66 1.32
0.45 0.60 0.68 0.68 0.53 0.56 0.94 0.56 0.94 1.09 1.14 1.38 1.43 1.29 1.21 1.39 1.25 1.52 1.26 1.40 1.34 1.36 1.45 1.71 1.72 1.69 1.69 1.73 1.68 1.58 1.51 1.44 1.51 1.49 1.59 1.66 1.66 1.71 1.67 1.61 1.59 1.52 1.68 2.39 1.58 1.61 1.68 1.54 1.59
0.62 0.73 0.71 0.61 0.58 0.55 0.57 0.62 0.81 1.13 0.97 1.20 1.31 1.19 1.21 1.19 1.29 1.48 1.29 1.38 1.41 1.41 1.37 1.51 1.61 1.70 1.64 1.62 1.78 1.60 1.50 1.52 1.51 1.51 1.52 1.67 1.55 1.61 1.58 1.62 1.58 1.51 1.37 1.57 1.78 1.63 1.56 1.57 1.56
0.50 0.60 0.61 0.58 0.54 0.41 0.51 0.57 0.76 0.99 1.02 1.19 1.22 1.27 1.23 1.27 1.30 1.18 1.40 1.54 1.45 1.47 1.43 1.40 1.55 1.63 1.63 1.56 1.74 1.60 1.49 1.71 1.43 1.51 1.42 1.48 1.67 1.55 1.58 1.58 1.55 1.54 1.41 1.50 1.56 1.62 1.54 1.63 1.60
0.45 0.45 0.37 0.37 0.38 0.40 0.63 0.59 0.81 1.11 1.09 1.18 1.29 1.31 1.34 1.22 1.14 1.20 1.37 1.42 1.38 1.42 1.48 1.45 1.46 1.53 1.60 1.62 1.63 1.65 1.51 1.66 1.72 1.58 1.51 1.53 1.52 1.56 1.61 1.55 1.50 1.48 1.45 1.49 1.54 1.61 1.59 1.50 1.59
0.38 0.40 0.39 0.38 0.49 0.44 0.69 0.56 0.73 0.99 1.05 1.07 1.31 1.47 1.46 1.54 1.26 1.23 1.19 1.45 1.44 1.53 1.41 1.51 1.48 1.48 1.56 1.67 1.62 1.67 1.60 1.56 1.62 1.65 1.69 1.59 1.69 1.60 1.81 1.71 1.66 1.64 1.68 1.57 1.56 1.55 1.49 1.56 1.55
0.41 0.35 0.43 0.49 0.53 0.48 0.64 0.76 0.79 0.87 1.03 1.10 1.10 1.31 1.42 1.45 1.46 1.39 1.32 1.31 1.46 1.47 1.44 1.50 1.53 1.48 1.52 1.62 1.66 1.72 1.78 1.75 1.67 1.67 1.61 1.67 1.66 1.82 1.75 1.80 1.67 1.70 1.68 1.66 1.60 1.49 1.54 1.58 1.66
0.47 0.58 0.35 0.38 0.42 0.42 0.66 0.83 0.65 0.73 0.92 1.05 1.07 1.13 1.35 1.47 1.44 1.56 1.37 1.28 1.38 1.50 1.57 1.59 1.58 1.50 1.48 1.55 1.62 1.69 1.77 1.81 1.80 1.78 2.06 1.67 1.73 1.65 2.03 1.92 1.75 1.78 1.68 1.69 1.60 1.52 1.50 1.48 1.45
0.42 0.56 0.53 0.52 0.55 0.54 0.54 0.70 0.97 0.88 0.92 1.02 1.09 1.19 1.33 1.41 1.53 1.51 1.49 1.32 1.37 1.52 1.58 1.61 1.61 1.58 1.51 1.51 1.58 1.60 1.65 1.77 1.78 1.73 1.77 1.77 1.74 1.72 1.65 1.72 1.76 1.73 1.70 1.72 1.76 1.57 1.65 1.79 1.59
0.58 0.74 0.61 0.53 0.52 0.61 0.64 0.72 1.14 0.97 1.00 1.04 1.07 1.18 1.38 1.44 1.58 1.67 1.63 1.40 1.46 1.51 1.56 1.55 1.64 1.64 1.61 1.59 1.57 1.64 1.69 1.73 1.77 1.79 1.86 1.92 1.85 1.87 1.85 1.83 1.77 1.75 1.70 1.73 1.72 1.69 1.62 1.63 1.55

GFSSGP_prec_pwat_138.txt.gz
Precipitable_Water
1.86 1.98 1.78 1.83 1.22 1.11 0.74 0.73 0.87 0.88 0.85 1.00 1.14 1.10 1.04 1.15 1.21 0.82 1.77 1.79 1.74 1.74 1.87 1.95 1.97 1.95 2.02 1.97 1.79 1.70 1.90 1.85 1.85 1.85 1.84 1.87 1.83 1.82 1.88 1.94 1.96 1.95 1.91 1.95 2.06 2.05 2.03 2.06 2.09
1.87 1.86 1.74 1.80 1.08 0.63 0.76 0.84 0.91 0.95 1.03 1.07 1.24 1.20 1.05 0.97 1.30 1.25 1.45 1.70 1.79 1.78 1.83 1.86 1.85 1.86 1.95 1.92 1.70 1.76 1.83 1.84 1.85 1.83 1.87 1.87 1.84 1.89 2.03 2.04 2.13 2.11 2.10 2.15 2.12 2.16 2.15 2.07 1.97
1.98 1.86 1.41 1.30 0.96 0.76 0.65 0.91 0.91 1.00 1.21 1.23 1.17 1.32 1.07 1.05 1.29 1.34 1.66 1.95 2.01 1.80 1.78 1.84 1.79 1.80 1.71 1.49 1.67 1.77 1.78 1.86 1.85 1.92 1.91 1.86 1.81 1.89 2.03 2.08 2.14 2.13 2.11 2.17 2.08 2.07 2.03 1.89 1.71
1.85 1.61 1.59 1.05 0.88 0.94 0.85 0.88 0.96 0.87 1.22 1.20 1.13 0.98 1.26 1.44 1.30 1.53 1.70 2.19 1.42 1.89 1.79 1.84 1.75 1.74 1.54 1.49 1.60 1.75 1.86 1.87 1.88 1.90 1.93 1.93 1.88 1.93 2.02 2.04 2.05 2.04 2.05 2.03 1.99 1.79 1.69 1.56 1.37
1.80 1.48 1.09 0.96 1.06 0.97 0.92 0.91 1.05 0.99 1.13 1.17 1.26 0.94 1.16 1.40 1.45 1.63 1.65 1.80 1.74 1.76 1.73 1.83 1.77 1.66 1.70 1.78 1.77 1.79 1.83 1.86 1.78 1.92 1.85 1.97 1.98 2.02 2.11 2.07 1.99 2.10 2.11 1.94 1.81 1.65 1.54 1.50 1.54
1.49 1.58 1.02 0.95 0.89 1.05 1.05 1.08 1.11 1.17 1.05 1.00 1.12 1.03 1.16 1.39 1.40 1.61 1.66 1.70 1.82 1.71 1.67 1.84 1.76 1.70 1.83 1.85 1.84 1.84 1.83 1.82 1.77 1.77 1.80 1.80 1.96 2.07 2.19 2.13 2.06 1.99 1.97 1.71 1.63 1.63 1.52 1.37 1.32
1.38 1.40 1.06 1.16 0.93 0.95 1.06 1.17 1.26 0.99 1.15 1.04 1.06 0.99 1.15 1.36 1.39 1.70 1.65 2.02 1.65 1.68 1.56 1.70 1.71 1.91 1.85 1.87 1.80 1.75 1.78 1.77 1.77 1.73 1.75 1.65 1.78 2.00 2.06 2.08 2.06 1.90 1.73 1.56 1.52 1.36 1.28 1.28 1.21
1.72 1.40 1.17 1.31 1.04 1.03 1.22 1.28 1.24 1.13 1.20 1.25 1.48 0.96 1.04 1.27 1.47 1.55 1.54 1.73 1.73 1.80 1.59 1.60 1.76 1.81 1.81 1.79 1.74 1.83 1.82 1.77 1.74 1.71 1.58 1.48 1.62 1.75 1.83 1.93 1.93 1.87 1.64 1.51 1.41 1.39 1.29 1.17 1.09
1.83 1.17 1.09 1.09 1.18 1.24 1.53 1.20 1.17 1.23 0.96 1.18 1.25 1.29 1.26 1.38 1.46 1.48 1.44 1.43 1.55 1.86 1.72 1.83 1.79 1.80 1.87 1.88 1.87 1.85 1.76 1.69 1.74 1.80 1.70 1.80 1.65 1.69 1.81 1.86 1.84 1.73 1.53 1.41 1.53 1.59 1.36 1.40 1.38
1.33 1.10 1.13 1.26 1.30 1.22 1.42 1.48 1.38 1.03 1.02 1.03 1.17 1.41 1.28 1.36 1.41 1.29 1.33 1.35 1.56 1.60 1.71 1.85 2.27 1.80 1.92 1.92 1.90 1.88 1.90 1.77 1.78 1.84 1.87 1.85 1.73 1.66 1.58 1.71 1.68 1.63 1.46 1.49 1.62 1.75 1.83 1.78 1.64
1.19 1.20 1.40 1.38 1.40 1.42 1.45 1.39 1.51 1.16 0.97 1.06 1.00 1.12 1.21 1.29 1.39 1.29 1.52 1.42 1.49 1.69 1.74 1.77 1.85 1.78 1.91 1.97 1.91 1.94 2.03 1.84 1.67 1.67 1.73 1.66 1.46 1.37 1.47 1.54 1.53 1.59 1.49 1.48 1.66 1.75 1.78 1.71 1.70
0.85 1.24 1.28 1.34 1.37 1.37 1.46 1.42 1.32 1.22 1.32 1.36 1.25 1.16 1.20 1.25 1.33 1.38 1.28 1.44 1.63 1.59 1.78 2.02 1.91 1.94 1.95 2.05 1.92 1.92 1.95 1.82 1.64 1.56 1.61 1.68 1.69 1.60 1.67 1.68 1.60 1.55 1.53 1.61 1.68 1.56 1.56 1.49 1.71
0.96 1.09 1.16 1.24 1.30 1.41 1.52 1.44 1.32 1.27 1.33 1.27 1.17 1.19 1.17 1.35 1.51 1.45 1.35 1.42 1.62 1.55 1.67 1.80 1.85 1.67 1.87 1.92 1.94 1.91 1.91 1.87 1.51 1.51 1.65 1.80 1.62 1.79 1.73 1.59 1.60 1.54 1.44 1.65 1.57 1.60 1.42 1.35 1.38
1.27 1.46 1.06 1.17 1.24 1.29 1.41 1.37 1.33 1.23 1.35 1.20 1.08 1.16 1.23 1.38 1.29 1.33 1.42 1.40 1.52 1.63 1.82 1.97 1.78 1.83 1.91 2.00 1.87 1.87 2.02 1.81 1.57 1.56 1.95 1.80 1.77 1.57 1.41 1.68 1.65 1.56 1.76 1.72 1.75 1.56 1.52 1.38 1.29
1.11 1.18 1.00 0.95 1.03 1.12 1.29 1.14 1.18 1.31 1.33 1.31 1.02 1.14 1.23 1.27 1.55 1.34 1.44 1.38 1.53 1.66 1.76 1.91 1.70 1.78 2.01 1.90 1.83 1.85 1.78 1.68 1.58 1.50 1.80 1.80 2.00 1.75 1.80 1.75 1.49 1.63 1.52 1.42 1.41 1.44 1.51 1.25 1.22
0.76 0.89 0.75 1.14 1.09 1.09 1.03 0.87 1.26 1.38 1.37 1.29 1.11 1.17 1.25 1.40 1.38 1.37 1.44 1.42 1.56 1.53 1.63 1.82 1.74 1.70 1.83 1.83 1.83 1.89 1.67 1.66 1.69 1.59 1.50 1.80 1.71 1.75 1.59 1.67 1.75 1.53 1.44 1.62 1.50 1.50 1.42 1.13 1.15
0.68 0.56 0.79 0.88 1.40 1.08 1.01 0.93 1.17 1.39 1.33 1.29 1.32 1.19 1.49 1.28 1.33 1.59 1.45 1.42 1.43 1.71 1.61 1.65 1.86 1.81 1.75 1.75 1.80 1.74 1.69 1.61 1.58 1.49 1.58 1.71 1.68 1.69 1.85 1.88 1.71 1.55 1.82 1.56 1.51 1.65 1.34 1.17 1.19
0.73 0.75 0.76 0.83 1.25 1.12 1.04 1.02 1.22 1.33 1.33 1.25 1.34 1.28 1.46 1.52 1.17 1.34 1.57 1.44 1.60 1.61 1.59 1.60 1.75 1.83 1.80 1.71 1.71 1.72 1.60 1.64 1.59 1.62 1.80 1.74 1.84 1.76 1.93 2.19 1.62 1.62 1.96 1.87 1.54 1.50 1.47 1.30 1.29
0.78 0.80 0.80 0.94 0.95 1.12 0.97 1.02 1.14 1.20 1.30 1.29 1.30 1.21 1.35 1.31 1.24 1.33 1.60 1.44 1.45 1.56 1.61 1.68 1.65 1.76 1.71 1.66 1.53 1.58 1.44 1.60 1.50 1.76 1.93 1.79 1.75 1.86 2.17 1.81 1.61 1.66 1.77 1.87 1.68 1.42 1.33 1.44 1.43
0.73 0.69 0.68 0.90 0.95 0.86 0.86 0.85 1.06 1.13 1.15 1.23 1.33 1.35 1.34 1.40 1.37 1.35 1.44 1.53 1.40 1.46 1.65 1.79 1.70 1.71 1.62 1.65 1.54 1.56 1.51 1.58 1.54 1.82 1.76 1.76 1.82 1.76 1.87 1.84 1.61 1.47 1.78 1.79 1.65 1.65 1.45 1.49 1.40
0.63 0.62 0.70 0.73 0.75 0.82 0.72 0.75 1.00 1.17 1.20 1.27 1.34 1.40 1.43 1.39 1.59 1.41 1.37 1.37 1.47 1.50 1.57 1.76 1.70 1.60 1.74 1.65 1.60 1.58 1.60 1.52 1.52 1.58 1.75 1.56 1.74 1.78 1.74 1.69 1.94 2.06 1.85 1.57 1.82 1.81 1.52 1.34 1.37
0.45 0.65 0.73 0.64 0.57 0.49 0.80 0.53 0.88 1.07 1.14 1.21 1.31 1.32 1.41 1.29 1.67 1.57 1.30 1.38 1.46 1.46 1.54 1.73 1.69 1.60 1.66 1.65 1.58 1.44 1.41 1.35 1.48 1.60 1.68 1.61 1.64 1.64 1.75 1.64 1.69 2.02 1.69 1.73 1.80 1.77 1.56 1.31 1.38
0.43 0.62 0.60 0.63 0.61 0.55 0.54 0.56 0.79 1.10 1.08 1.15 1.29 1.33 1.29 1.26 1.66 1.58 1.43 1.39 1.51 1.48 1.45 1.63 1.66 1.60 1.75 1.60 1.64 1.55 1.49 1.63 1.60 1.52 1.57 1.71 1.56 1.55 1.73 1.59 1.61 1.73 1.59 1.47 1.87 1.61 1.58 1.86 1.92
0.51 0.57 0.61 0.64 0.60 0.40 0.47 0.56 0.79 0.88 0.95 1.17 1.27 1.37 1.24 1.24 1.40 1.55 1.75 1.48 1.38 1.54 1.45 1.57 1.57 1.66 1.65 1.67 1.70 1.60 1.54 1.54 1.47 1.50 1.48 1.43 1.52 1.45 1.47 1.60 1.59 1.60 1.51 1.69 1.69 1.52 1.33 1.44 1.55
0.45 0.41 0.34 0.35 0.35 0.40 0.68 0.61 0.76 0.99 1.07 1.20 1.21 1.13 1.13 1.24 1.23 1.53 1.69 1.59 1.36 1.40 1.37 1.44 1.49 1.54 1.56 1.50 1.71 1.58 1.58 1.62 1.57 1.49 1.62 1.32 1.49 1.45 1.40 1.39 1.39 1.44 1.44 1.36 1.41 1.49 1.48 1.46 1.35
0.41 0.39 0.33 0.39 0.45 0.54 0.68 0.63 0.82 1.01 1.05 1.15 1.31 1.21 1.24 1.15 1.32 1.50 1.57 1.39 1.60 1.38 1.38 1.37 1.42 1.41 1.56 1.46 1.55 1.64 1.50 1.70 1.74 1.63 1.47 1.52 1.58 1.75 1.68 1.63 1.56 1.37 1.51 1.43 1.37 1.46 1.54 1.47 1.42
0.37 0.37 0.38 0.41 0.50 0.48 0.61 0.74 0.96 1.01 0.95 0.96 1.17 1.24 1.26 1.29 1.26 1.44 1.57 1.44 1.54 1.43 1.65 1.45 1.47 1.44 1.42 1.54 1.59 1.57 1.49 1.51 1.60 1.58 1.58 1.71 1.90 1.94 1.83 1.75 1.59 1.56 1.49 1.67 1.48 1.44 1.41 1.52 1.61
0.35 0.47 0.41 0.37 0.32 0.38 0.69 0.65 0.65 0.86 1.21 1.10 1.12 1.24 1.36 1.43 1.46 1.38 1.41 1.54 1.50 1.46 1.59 1.64 1.49 1.52 1.49 1.51 1.65 1.63 1.61 1.57 1.60 1.65 1.64 1.70 1.76 1.74 1.87 1.82 1.82 1.59 1.64 1.63 1.65 1.43 1.49 1.49 1.42
0.41 0.36 0.57 0.63 0.55 0.49 0.52 0.59 0.90 1.05 1.13 1.22 1.10 1.26 1.32 1.26 1.46 1.55 1.43 1.52 1.79 1.64 1.41 1.47 1.50 1.53 1.44 1.46 1.59 1.62 1.66 1.66 1.73 1.81 1.81 1.56 1.73 1.80 1.71 1.72 1.96 1.73 1.67 1.58 1.58 1.55 1.46 1.49 1.63
0.50 0.48 0.56 0.48 0.52 0.70 0.63 0.71 1.05 1.09 1.29 1.12 1.11 1.26 1.64 1.38 1.46 1.59 1.58 1.57 1.67 1.88 1.45 1.36 1.48 1.56 1.44 1.42 1.53 1.58 1.65 1.72 1.75 1.66 1.68 1.73 1.72 1.74 1.70 1.81 1.81 1.77 1.71 1.60 1.65 1.64 1.60 1.60 1.56

GFSSGP_prec_pwat_141.txt.gz
Precipitable_Water
1.86 1.80 2.06 1.91 1.20 1.02 0.74 0.87 0.93 0.87 0.96 1.17 1.19 1.10 0.97 0.98 0.95 0.81 1.71 1.74 1.67 1.70 1.84 1.86 1.91 1.93 1.89 1.77 1.91 1.92 1.91 1.91 1.92 1.95 1.93 1.82 1.83 1.90 1.94 1.91 1.87 1.91 1.93 1.99 1.99 1.93 1.90 1.88 1.90
1.95 1.72 1.84 1.52 0.95 0.67 0.72 0.87 0.92 0.97 1.07 1.16 1.17 1.13 1.00 0.93 1.22 1.43 1.55 1.83 1.70 1.71 1.78 1.79 1.87 1.94 1.84 1.86 1.86 1.93 1.92 1.91 1.89 1.88 1.90 1.92 1.98 2.02 2.05 2.00 1.97 2.04 2.11 2.08 2.07 2.05 2.02 1.94 1.92
1.99 1.85 1.37 1.17 0.97 0.75 0.69 0.87 0.97 1.04 1.24 1.18 1.06 1.14 1.02 1.03 1.34 1.47 1.75 1.84 1.73 1.68 1.67 1.71 1.77 1.75 1.56 1.71 1.85 1.94 1.89 1.91 1.92 1.89 1.84 1.95 2.07 2.10 2.14 2.24 2.26 2.23 2.17 2.13 2.09 1.97 1.88 1.77 1.70
1.86 1.67 1.43 1.06 0.94 0.98 0.87 0.97 0.95 1.13 1.30 1.22 1.15 0.98 1.26 1.43 1.30 1.56 1.82 1.92 1.74 1.73 1.67 1.73 1.66 1.46 1.53 1.77 1.76 1.85 1.87 1.89 1.93 1.90 1.81 1.87 1.99 2.02 2.11 2.12 2.09 2.12 2.07 1.96 1.89 1.75 1.63 1.47 1.73
1.83 1.55 1.22 1.08 0.95 1.11 1.06 1.01 1.02 1.07 1.20 1.14 1.13 1.07 1.14 1.48 1.58 1.60 1.50 1.68 1.71 1.64 1.67 1.75 1.51 1.54 1.62 1.74 1.83 1.83 1.82 1.89 1.90 1.92 1.92 1.98 2.01 1.99 1.97 1.97 2.00 1.95 1.89 1.75 1.55 1.47 1.45 1.63 1.80
1.60 1.44 1.03 1.01 1.09 1.25 1.20 1.11 1.09 1.15 1.11 1.09 1.07 1.06 1.19 1.58 1.68 1.59 1.56 1.74 1.65 1.54 1.64 1.71 1.65 1.76 1.82 1.84 1.83 1.79 1.72 1.75 1.82 1.83 1.93 1.98 2.09 2.09 1.98 2.04 2.08 1.87 1.69 1.67 1.58 1.42 1.45 1.58 1.61
1.46 1.33 1.07 1.10 1.15 1.30 1.19 1.17 1.10 1.27 1.27 1.09 1.07 0.91 1.18 1.54 1.77 1.79 1.75 1.81 1.69 1.65 1.66 1.66 1.76 1.86 1.85 1.85 1.79 1.82 1.74 1.67 1.73 1.72 1.81 2.02 2.15 2.15 2.05 1.87 1.76 1.64 1.53 1.39 1.33 1.32 1.28 1.40 1.50
1.60 1.42 1.13 1.14 1.07 1.15 1.37 1.32 1.15 1.26 1.26 1.28 1.31 1.00 1.00 1.42 1.63 1.85 1.69 1.98 1.85 1.64 1.45 1.62 1.78 1.86 1.84 1.81 1.77 1.77 1.74 1.71 1.67 1.63 1.61 1.76 1.89 1.96 1.95 1.89 1.67 1.50 1.45 1.39 1.34 1.24 1.13 1.19 1.32
1.78 1.19 1.03 1.11 1.17 1.21 1.45 1.22 1.33 1.34 1.24 1.26 1.17 1.17 1.17 1.50 1.66 1.66 1.48 1.62 1.89 1.87 1.61 1.61 1.73 1.77 1.75 1.80 1.83 1.81 1.72 1.72 1.61 1.66 1.64 1.76 1.71 1.79 1.82 1.72 1.56 1.43 1.50 1.54 1.38 1.42 1.41 1.36 1.33
1.30 1.02 1.06 1.25 1.36 1.29 1.45 1.42 1.21 1.18 1.17 1.09 1.16 1.31 1.25 1.40 1.46 1.42 1.41 1.47 1.60 1.71 1.75 1.80 1.81 1.79 1.80 1.81 1.75 1.72 1.83 1.87 1.81 1.77 1.76 1.68 1.67 1.69 1.69 1.60 1.47 1.51 1.65 1.80 1.80 1.69 1.59 1.46 1.32
1.41 0.90 1.16 1.27 1.43 1.45 1.39 1.35 1.44 1.23 1.08 1.09 1.15 1.20 1.22 1.26 1.36 1.37 1.45 1.42 1.61 1.69 1.64 1.79 1.88 1.85 1.82 1.80 1.82 1.81 1.85 1.81 1.85 1.87 1.69 1.61 1.61 1.58 1.58 1.57 1.46 1.43 1.54 1.64 1.72 1.70 1.70 1.63 1.51
1.05 1.27 1.19 1.33 1.38 1.44 1.38 1.54 1.47 1.31 1.34 1.46 1.26 1.21 1.21 1.23 1.40 1.48 1.60 1.54 1.55 1.63 1.68 1.74 1.89 1.88 1.94 1.82 1.85 1.84 1.75 1.71 1.64 1.66 1.66 1.62 1.57 1.56 1.59 1.53 1.55 1.60 1.68 1.63 1.65 1.61 1.63 1.54 1.49
1.45 1.20 1.33 1.29 1.30 1.48 1.52 1.51 1.35 1.28 1.44 1.47 1.34 1.20 1.17 1.21 1.40 1.39 1.52 1.65 1.58 1.58 1.61 1.75 1.95 2.05 1.96 1.91 1.87 1.94 1.82 1.62 1.62 1.60 1.68 1.71 1.68 1.71 1.61 1.56 1.61 1.59 1.72 1.69 1.55 1.46 1.47 1.43 1.35
1.31 1.07 1.26 1.24 1.23 1.31 1.29 1.35 1.40 1.36 1.36 1.36 1.15 1.09 1.23 1.48 1.31 1.36 1.52 1.52 1.55 1.64 1.74 1.87 1.86 1.83 1.92 1.93 1.83 1.95 1.97 1.73 1.51 1.64 1.70 1.74 1.82 1.75 1.69 1.64 1.51 1.54 1.64 1.67 1.56 1.45 1.43 1.32 1.27
1.10 0.84 1.03 1.20 1.10 1.12 1.28 1.08 1.09 1.38 1.38 1.20 1.14 1.12 1.26 1.41 1.42 1.41 1.46 1.48 1.62 1.76 1.79 1.69 1.65 1.79 1.88 1.85 1.88 1.94 1.93 1.71 1.50 1.71 1.73 1.75 1.58 1.52 1.61 1.74 1.58 1.74 1.70 1.69 1.54 1.50 1.47 1.30 1.23
0.99 0.94 0.92 1.24 1.28 1.34 1.19 0.77 1.09 1.43 1.38 1.22 1.16 1.13 1.15 1.34 1.52 1.47 1.49 1.54 1.61 1.67 1.76 1.77 1.67 1.76 1.79 1.74 1.85 1.87 1.82 1.76 1.59 1.61 1.79 1.76 1.70 1.78 1.76 1.57 1.61 1.54 1.66 1.68 1.58 1.47 1.39 1.21 1.19
0.88 0.77 0.79 0.96 1.17 1.14 1.07 0.93 1.07 1.31 1.37 1.24 1.22 1.15 1.26 1.33 1.33 1.43 1.48 1.56 1.54 1.55 1.62 1.70 1.69 1.65 1.61 1.80 1.68 1.79 1.94 1.73 1.65 1.48 1.48 1.53 1.66 1.77 1.91 1.95 1.67 1.52 1.63 1.68 1.72 1.48 1.43 1.23 1.27
0.66 0.68 0.85 0.90 1.01 1.20 0.98 0.97 1.16 1.22 1.31 1.29 1.23 1.25 1.30 1.34 1.28 1.56 1.49 1.55 1.56 1.66 1.68 1.73 1.81 1.74 1.73 1.74 1.73 1.70 1.73 1.67 1.57 1.54 1.66 1.77 1.67 1.84 1.81 1.75 1.68 1.55 1.46 1.54 2.01 1.56 1.50 1.33 1.35
0.76 0.74 0.75 0.88 0.94 1.03 0.95 0.86 1.04 1.10 1.19 1.26 1.35 1.19 1.27 1.22 1.31 1.42 1.57 1.53 1.56 1.57 1.59 1.61 1.64 1.72 1.70 1.63 1.62 1.58 1.47 1.55 1.58 1.64 1.71 1.67 1.69 1.70 1.87 1.71 1.44 1.67 1.50 1.37 1.56 1.47 1.49 1.45 1.41
0.69 0.71 0.81 1.00 1.08 1.12 0.96 0.85 0.92 1.03 1.03 1.11 1.31 1.38 1.23 1.30 1.52 1.35 1.47 1.50 1.45 1.55 1.57 1.66 1.67 1.71 1.68 1.59 1.62 1.58 1.53 1.60 1.57 1.65 1.75 1.63 1.62 1.66 2.02 1.81 1.35 1.34 1.54 1.85 1.42 1.46 1.46 1.47 1.51
0.57 0.66 0.68 0.70 0.85 0.96 0.90 0.75 0.87 1.07 1.14 1.14 1.20 1.40 1.47 1.42 1.43 1.32 1.40 1.53 1.51 1.54 1.55 1.62 1.63 1.64 1.65 1.60 1.60 1.56 1.60 1.63 1.59 1.62 1.68 1.65 1.67 1.73 1.92 1.93 1.58 1.44 1.70 1.58 1.44 1.47 1.33 1.41 1.47
0.54 0.74 0.72 0.69 0.67 0.54 0.77 0.47 0.75 0.98 1.06 1.08 1.09 1.22 1.40 1.45 1.41 1.51 1.50 1.38 1.40 1.51 1.64 1.62 1.62 1.58 1.59 1.59 1.57 1.50 1.46 1.38 1.46 1.50 1.62 1.50 1.55 1.66 1.76 1.74 1.64 1.67 1.61 1.51 1.59 1.86 1.38 1.42 1.42
0.47 0.59 0.56 0.57 0.54 0.54 0.56 0.57 0.63 1.02 1.01 1.04 1.08 1.18 1.28 1.40 1.40 1.50 1.44 1.49 1.48 1.58 1.60 1.67 1.65 1.54 1.58 1.53 1.55 1.48 1.45 1.49 1.50 1.54 1.58 1.54 1.62 1.51 1.61 1.61 1.68 1.75 1.49 1.57 1.57 1.75 1.60 1.58 1.48
0.49 0.50 0.50 0.51 0.49 0.39 0.54 0.63 0.71 0.84 0.99 1.04 1.19 1.24 1.32 1.38 1.39 1.43 1.50 1.39 1.63 1.58 1.56 1.61 1.52 1.48 1.53 1.54 1.55 1.45 1.40 1.56 1.53 1.48 1.47 1.54 1.48 1.45 1.59 1.59 1.52 1.58 1.64 1.63 1.74 1.75 1.70 1.62 1.37
0.42 0.40 0.34 0.36 0.38 0.38 0.59 0.54 0.69 0.89 0.99 1.06 1.13 1.23 1.31 1.25 1.24 1.44 1.41 1.33 1.53 1.56 1.60 1.58 1.43 1.39 1.59 1.61 1.57 1.54 1.55 1.53 1.55 1.41 1.44 1.44 1.38 1.47 1.49 1.51 1.46 1.46 1.50 1.52 1.65 1.54 1.51 1.60 1.55
0.38 0.36 0.29 0.28 0.31 0.43 0.58 0.50 0.77 1.04 1.13 1.19 1.24 1.33 1.33 1.21 1.21 1.42 1.53 1.53 1.59 1.53 1.57 1.59 1.39 1.32 1.52 1.51 1.52 1.65 1.59 1.57 1.56 1.51 1.55 1.49 1.46 1.54 1.52 1.54 1.59 1.48 1.43 1.44 1.40 1.40 1.43 1.49 1.46
0.35 0.34 0.41 0.34 0.42 0.39 0.54 0.64 0.81 1.02 1.08 1.15 1.22 1.35 1.27 1.20 1.20 1.26 1.37 1.55 1.40 1.47 1.54 1.50 1.44 1.33 1.36 1.43 1.37 1.57 1.63 1.54 1.77 1.64 1.66 1.60 1.60 1.68 1.75 1.68 1.69 1.60 1.47 1.49 1.46 1.30 1.30 1.46 1.46
0.31 0.37 0.34 0.46 0.37 0.32 0.49 0.59 0.59 0.78 0.96 1.11 1.12 1.29 1.35 1.20 1.24 1.38 1.53 1.51 1.61 1.63 1.65 1.63 1.53 1.40 1.30 1.37 1.43 1.48 1.55 1.48 1.65 1.62 1.54 1.54 1.72 1.87 1.87 1.74 1.68 1.61 1.55 1.56 1.56 1.46 1.42 1.41 1.46
0.42 0.37 0.44 0.53 0.56 0.43 0.44 0.60 0.88 0.91 1.00 1.13 1.28 1.40 1.38 1.28 1.31 1.48 1.49 1.52 1.52 1.62 1.66 1.61 1.63 1.49 1.33 1.38 1.39 1.44 1.50 1.54 1.50 1.56 1.52 1.59 1.72 1.73 1.71 1.84 1.87 1.86 1.64 1.67 1.54 1.57 1.52 1.41 1.42
0.57 0.52 0.48 0.42 0.43 0.52 0.56 0.60 0.92 0.96 1.04 1.21 1.40 1.51 1.59 1.59 1.48 1.55 1.55 1.57 1.57 1.61 1.68 1.80 1.78 1.58 1.43 1.36 1.36 1.42 1.50 1.56 1.56 1.60 1.64 1.74 1.64 1.73 1.76 1.70 1.62 1.73 1.62 1.65 1.56 1.52 1.60 1.55 1.49

GFSSGP_prec_pwat_144.txt.gz
Precipitable_Water
1.76 1.85 2.10 1.71 1.05 0.98 0.85 0.94 1.04 0.99 1.05 1.13 1.17 1.14 1.06 1.14 0.94 0.79 1.45 1.65 1.68 1.68 1.89 1.96 1.89 1.93 1.88 1.91 2.03 2.09 2.09 2.11 2.11 2.04 1.97 1.85 1.84 1.75 1.72 1.75 1.81 1.86 1.85 1.80 1.77 1.82 1.83 1.82 1.82
1.85 1.81 1.81 1.37 0.87 0.69 0.72 1.03 0.93 1.07 1.14 1.20 1.18 1.14 1.04 1.04 1.26 1.30 1.41 1.62 1.61 1.62 1.78 1.77 1.81 1.79 1.99 1.92 1.84 1.85 1.89 1.88 1.88 1.84 1.85 1.92 1.91 1.88 1.87 1.88 1.91 1.97 1.95 1.96 1.99 1.95 1.92 1.86 1.84
2.01 1.80 1.30 1.07 0.88 0.72 0.77 0.96 1.02 1.14 1.27 1.15 1.00 1.09 1.12 1.09 1.32 1.42 1.57 1.63 1.65 1.60 1.70 1.81 1.70 1.93 2.00 2.04 1.91 1.94 1.89 1.83 1.88 1.94 2.00 2.12 2.14 2.03 1.96 2.08 2.14 2.10 2.06 2.06 2.01 1.90 1.82 1.77 2.01
1.87 1.59 1.42 0.99 0.83 0.99 1.03 1.05 1.09 1.10 1.25 1.25 1.04 0.91 1.24 1.48 1.35 1.57 1.73 1.68 1.64 1.57 1.64 1.76 1.60 1.69 1.75 1.76 1.82 1.91 1.91 1.89 1.87 1.97 2.07 2.12 2.17 2.24 2.22 2.20 2.10 2.04 1.96 1.93 1.88 1.75 1.64 1.84 1.91
1.85 1.50 1.11 1.04 1.04 1.09 1.12 1.15 1.07 1.00 1.10 1.08 1.10 0.98 1.08 1.43 1.60 1.65 1.61 1.65 1.52 1.50 1.63 1.65 1.55 1.66 1.73 1.81 1.86 1.92 1.98 1.95 1.87 1.89 2.00 2.02 2.08 2.07 2.02 2.02 1.97 1.88 1.73 1.70 1.63 1.54 1.73 1.89 1.81
1.42 1.45 1.06 0.95 1.08 1.34 1.32 1.41 1.17 1.16 1.11 1.06 1.03 1.03 1.23 1.56 1.55 1.65 1.75 1.68 1.59 1.51 1.61 1.44 1.52 1.70 1.74 1.82 1.86 1.92 1.92 1.95 1.97 2.01 2.05 2.03 1.97 1.98 1.98 1.97 1.77 1.72 1.59 1.57 1.53 1.62 1.72 1.69 1.77
1.27 1.19 1.08 1.12 1.14 1.25 1.34 1.42 1.15 1.26 1.18 1.02 1.20 0.98 1.41 1.59 1.68 1.73 1.86 1.68 1.67 1.68 1.53 1.61 1.66 1.83 1.88 1.86 1.80 1.75 1.81 1.82 1.98 2.01 2.10 2.13 1.99 2.04 2.00 1.80 1.57 1.57 1.59 1.45 1.43 1.57 1.63 1.58 1.52
1.43 1.25 1.09 1.15 1.07 1.12 1.39 1.34 1.32 1.22 1.22 1.29 1.25 1.08 1.10 1.54 1.75 1.80 1.82 1.79 1.70 1.63 1.54 1.69 1.82 1.83 1.79 1.80 1.81 1.72 1.73 1.78 1.78 1.98 2.09 2.14 2.09 1.93 1.80 1.61 1.55 1.49 1.40 1.31 1.31 1.35 1.47 1.50 1.43
1.63 1.10 1.01 1.13 1.17 1.27 1.42 1.29 1.38 1.44 1.31 1.23 1.23 1.18 1.34 1.57 1.74 1.65 1.75 1.64 1.56 1.50 1.53 1.72 1.79 1.75 1.71 1.72 1.78 1.74 1.75 1.69 1.65 1.74 1.87 1.92 1.88 1.86 1.70 1.55 1.55 1.50 1.42 1.35 1.34 1.33 1.40 1.40 1.40
1.38 1.04 1.04 1.24 1.33 1.28 1.32 1.33 1.36 1.30 1.18 1.18 1.18 1.37 1.42 1.65 1.59 1.45 1.42 1.35 1.44 1.43 1.61 1.66 1.71 1.62 1.75 1.76 1.72 1.71 1.69 1.74 1.68 1.70 1.78 1.77 1.81 1.71 1.58 1.63 1.76 1.75 1.72 1.64 1.56 1.46 1.35 1.32 1.32
1.41 1.15 1.21 1.25 1.39 1.44 1.33 1.38 1.52 1.30 1.08 1.13 1.15 1.21 1.31 1.40 1.45 1.43 1.46 1.45 1.45 1.60 1.69 1.74 1.72 1.73 1.74 1.65 1.74 1.76 1.86 1.85 1.80 1.75 1.68 1.69 1.78 1.65 1.54 1.62 1.63 1.73 1.78 1.77 1.69 1.62 1.54 1.47 1.43
1.20 1.47 1.29 1.29 1.45 1.45 1.40 1.53 1.36 1.37 1.36 1.32 1.24 1.27 1.25 1.34 1.45 1.55 1.53 1.47 1.58 1.68 1.76 1.87 1.78 1.74 1.74 1.68 1.74 1.81 1.80 1.85 1.83 1.70 1.67 1.63 1.59 1.65 1.54 1.49 1.57 1.60 1.71 1.67 1.64 1.58 1.51 1.49 1.54
1.06 1.30 1.26 1.32 1.34 1.40 1.47 1.36 1.40 1.29 1.44 1.48 1.40 1.24 1.23 1.38 1.52 1.48 1.56 1.61 1.67 1.62 1.67 1.83 1.84 1.78 1.72 1.79 1.77 1.79 1.77 1.71 1.75 1.66 1.67 1.68 1.61 1.56 1.61 1.59 1.60 1.63 1.66 1.61 1.60 1.59 1.44 1.45 1.46
1.12 1.20 1.25 1.15 1.23 1.36 1.36 1.40 1.49 1.43 1.51 1.42 1.34 1.17 1.21 1.38 1.46 1.43 1.48 1.58 1.62 1.60 1.68 1.78 1.85 1.86 1.89 1.83 1.89 1.78 1.77 1.68 1.64 1.65 1.69 1.74 1.69 1.64 1.69 1.59 1.56 1.62 1.67 1.61 1.54 1.49 1.42 1.37 1.36
1.14 0.95 1.15 1.30 1.18 1.11 1.32 1.16 1.17 1.42 1.48 1.35 1.31 1.16 1.16 1.33 1.39 1.33 1.45 1.44 1.52 1.69 1.68 1.76 1.81 1.86 1.98 1.88 1.86 1.85 1.79 1.67 1.63 1.73 1.71 1.71 1.86 1.69 1.64 1.52 1.53 1.75 1.70 1.70 1.64 1.54 1.45 1.30 1.32
1.02 1.07 0.84 1.21 1.31 1.25 1.14 0.85 1.11 1.45 1.42 1.33 1.26 1.20 1.19 1.37 1.43 1.49 1.50 1.56 1.63 1.63 1.73 1.76 1.71 1.86 1.86 1.89 1.86 1.91 1.75 1.57 1.62 1.72 1.83 1.66 1.66 1.68 1.81 1.50 1.54 1.73 1.71 1.57 1.52 1.50 1.39 1.28 1.15
0.90 0.79 0.95 0.93 1.13 1.11 1.07 0.94 1.15 1.39 1.40 1.33 1.28 1.27 1.27 1.23 1.38 1.44 1.53 1.62 1.62 1.60 1.63 1.67 1.67 1.70 1.82 1.75 1.85 1.86 1.71 1.67 1.61 1.71 1.65 1.74 1.66 1.66 1.57 1.55 1.56 1.67 1.59 1.51 1.46 1.40 1.38 1.30 1.23
0.67 0.75 0.82 0.80 1.00 1.03 0.98 0.96 1.13 1.19 1.34 1.34 1.30 1.33 1.36 1.35 1.26 1.46 1.55 1.64 1.60 1.58 1.62 1.67 1.62 1.65 1.71 1.73 1.83 1.87 1.78 1.67 1.60 1.54 1.56 1.73 1.66 1.71 1.70 1.64 1.42 1.50 1.45 1.47 1.43 1.38 1.42 1.31 1.30
0.64 0.72 0.70 0.86 1.01 1.01 0.93 0.89 1.02 1.09 1.22 1.28 1.35 1.37 1.28 1.37 1.50 1.42 1.51 1.64 1.56 1.57 1.60 1.57 1.62 1.53 1.58 1.65 1.65 1.80 1.64 1.60 1.53 1.57 1.67 1.70 1.60 1.74 1.75 1.61 1.50 1.45 1.35 1.73 1.75 1.51 1.43 1.45 1.46
0.45 0.69 0.75 0.84 0.95 0.86 0.91 0.90 1.01 1.05 1.10 1.17 1.30 1.37 1.38 1.36 1.37 1.39 1.46 1.53 1.52 1.49 1.57 1.60 1.62 1.66 1.59 1.66 1.68 1.64 1.60 1.56 1.52 1.63 1.66 1.71 1.66 1.57 1.76 1.67 1.39 1.38 1.42 1.43 1.54 1.45 1.34 1.40 1.46
0.42 0.62 0.72 0.75 0.73 0.92 0.88 0.82 0.91 1.08 1.17 1.17 1.27 1.37 1.45 1.36 1.33 1.43 1.31 1.42 1.49 1.52 1.60 1.56 1.61 1.61 1.61 1.59 1.61 1.61 1.61 1.59 1.54 1.56 1.65 1.61 1.66 1.68 1.91 1.78 1.45 1.30 1.58 1.69 1.44 1.39 1.32 1.24 1.38
0.44 0.79 0.70 0.75 0.62 0.50 0.81 0.52 0.75 0.90 0.98 1.11 1.12 1.27 1.40 1.45 1.43 1.54 1.38 1.42 1.56 1.51 1.65 1.57 1.58 1.60 1.63 1.60 1.51 1.50 1.43 1.45 1.49 1.54 1.66 1.69 1.70 1.70 1.79 1.81 1.61 1.46 1.55 1.59 1.46 1.46 1.40 1.41 1.30
0.50 0.63 0.63 0.67 0.56 0.51 0.56 0.54 0.61 0.88 0.89 1.07 1.15 1.21 1.37 1.49 1.52 1.48 1.48 1.48 1.43 1.47 1.63 1.65 1.60 1.59 1.57 1.53 1.47 1.43 1.42 1.46 1.48 1.60 1.66 1.58 1.61 1.71 1.77 1.73 1.57 1.64 1.47 1.54 1.42 1.59 1.51 1.46 1.46
0.51 0.59 0.59 0.58 0.52 0.36 0.50 0.51 0.52 0.78 0.97 1.12 1.27 1.23 1.32 1.44 1.54 1.62 1.59 1.61 1.47 1.44 1.59 1.67 1.60 1.52 1.53 1.50 1.46 1.43 1.43 1.48 1.42 1.48 1.51 1.48 1.54 1.56 1.59 1.69 1.60 1.73 1.60 1.52 1.44 1.78 1.66 1.53 1.46
0.40 0.41 0.32 0.36 0.38 0.33 0.55 0.51 0.61 0.88 1.03 1.13 1.21 1.30 1.28 1.39 1.51 1.56 1.54 1.53 1.44 1.44 1.47 1.60 1.60 1.51 1.51 1.50 1.46 1.45 1.49 1.51 1.48 1.51 1.43 1.40 1.44 1.48 1.54 1.55 1.55 1.63 1.72 1.70 1.76 1.74 1.70 1.73 1.61
0.35 0.38 0.30 0.23 0.28 0.30 0.45 0.38 0.58 0.92 1.05 1.16 1.27 1.39 1.38 1.38 1.44 1.41 1.45 1.51 1.43 1.50 1.51 1.55 1.57 1.44 1.51 1.52 1.50 1.56 1.55 1.48 1.55 1.49 1.38 1.41 1.44 1.42 1.51 1.56 1.55 1.56 1.57 1.57 1.58 1.59 1.47 1.54 1.47
0.34 0.30 0.36 0.32 0.36 0.32 0.43 0.55 0.75 0.84 0.96 1.13 1.21 1.29 1.40 1.41 1.47 1.37 1.48 1.56 1.53 1.49 1.60 1.57 1.53 1.41 1.42 1.48 1.51 1.58 1.57 1.59 1.54 1.55 1.57 1.57 1.52 1.51 1.51 1.52 1.45 1.51 1.53 1.47 1.38 1.32 1.26 1.35 1.37
0.33 0.39 0.29 0.37 0.28 0.29 0.45 0.50 0.52 0.69 0.83 1.03 1.12 1.22 1.36 1.47 1.40 1.40 1.44 1.53 1.67 1.65 1.57 1.63 1.60 1.49 1.40 1.48 1.47 1.41 1.58 1.54 1.63 1.80 1.61 1.59 1.52 1.57 1.67 1.68 1.58 1.57 1.53 1.47 1.49 1.46 1.35 1.26 1.28
0.37 0.36 0.45 0.49 0.47 0.32 0.32 0.43 0.76 0.81 0.87 0.97 1.07 1.19 1.31 1.50 1.45 1.33 1.39 1.51 1.63 1.65 1.63 1.75 1.68 1.62 1.59 1.50 1.44 1.42 1.46 1.56 1.56 1.66 1.66 1.61 1.55 1.68 1.76 1.78 1.70 1.60 1.56 1.51 1.52 1.50 1.47 1.34 1.28
0.56 0.50 0.47 0.35 0.38 0.47 0.41 0.36 0.82 0.88 0.90 0.89 0.93 1.04 1.28 1.51 1.54 1.44 1.35 1.52 1.68 1.72 1.73 1.71 1.79 1.72 1.68 1.61 1.54 1.44 1.43 1.51 1.54 1.47 1.59 1.58 1.59 1.68 1.70 1.65 1.72 1.76 1.82 1.65 1.57 1.48 1.45 1.44 1.34

GFSSGP_prec_pwat_147.txt.gz
Precipitable_Water
1.75 1.94 2.12 1.66 1.01 0.98 0.85 0.86 1.03 0.95 0.98 1.11 1.17 1.16 1.03 1.05 0.92 0.75 1.54 1.62 1.65 1.85 2.06 2.09 1.99 1.99 2.06 2.05 2.09 2.04 2.02 2.08 2.19 2.10 2.08 1.96 1.87 1.76 1.62 1.69 1.67 1.72 1.66 1.65 1.67 1.71 1.71 1.69 1.64
1.71 1.83 1.85 1.37 0.81 0.63 0.87 0.97 0.93 1.01 1.08 1.16 1.16 1.17 1.06 1.00 1.30 1.28 1.40 1.57 1.60 1.76 1.83 1.82 1.89 1.95 2.05 2.10 2.20 2.18 2.17 2.17 2.12 2.04 1.90 1.80 1.75 1.74 1.79 1.84 1.88 1.89 1.88 1.86 1.87 1.85 1.89 1.83 1.92
1.98 1.82 1.32 1.08 0.89 0.69 0.90 0.97 1.04 1.12 1.18 1.10 0.98 1.22 1.18 1.10 1.24 1.28 1.51 1.56 1.59 1.59 1.62 1.78 1.92 1.99 1.96 2.00 1.96 1.99 2.02 1.91 1.79 1.79 1.92 1.91 1.85 1.88 1.96 1.97 1.98 1.96 1.98 1.93 1.93 1.82 1.85 1.95 1.85
1.80 1.59 1.41 0.99 0.88 0.99 1.02 1.05 1.11 1.06 1.14 1.10 1.02 0.98 1.23 1.42 1.33 1.45 1.56 1.56 1.55 1.66 1.57 1.65 1.83 2.04 2.00 1.84 1.89 1.94 1.93 1.92 1.92 2.03 2.15 2.09 2.01 2.07 2.19 2.17 2.12 2.08 2.04 1.93 1.80 1.75 1.96 1.89 1.79
1.81 1.41 1.02 0.99 1.00 1.14 1.23 1.22 1.21 1.03 1.05 1.02 1.05 0.95 1.10 1.45 1.58 1.56 1.53 1.54 1.48 1.58 1.63 1.53 1.68 1.76 1.76 1.84 1.87 1.87 1.89 1.87 1.96 2.11 2.18 2.23 2.24 2.23 2.12 2.04 1.93 1.87 1.91 1.77 1.64 1.79 1.90 1.77 1.70
1.35 1.40 1.00 0.93 1.07 1.23 1.30 1.47 1.27 1.18 1.09 1.04 0.98 1.01 1.18 1.59 1.51 1.56 1.60 1.54 1.53 1.51 1.58 1.53 1.60 1.73 1.80 1.80 1.91 1.95 1.92 1.87 1.98 2.05 2.13 2.12 2.08 2.03 1.98 1.88 1.75 1.64 1.66 1.58 1.65 1.85 1.81 1.67 1.51
1.24 1.21 1.06 1.07 1.13 1.16 1.31 1.50 1.26 1.21 1.06 1.11 1.21 0.99 1.26 1.52 1.63 1.68 1.63 1.60 1.53 1.59 1.53 1.47 1.71 1.75 1.80 1.82 1.90 1.95 1.99 2.00 2.07 2.09 2.03 1.96 2.03 2.02 1.81 1.74 1.68 1.63 1.58 1.53 1.66 1.71 1.75 1.57 1.46
1.37 1.28 1.08 1.14 1.03 1.12 1.40 1.46 1.35 1.26 1.18 1.28 1.30 0.99 1.04 1.43 1.75 1.84 1.75 1.66 1.57 1.52 1.43 1.54 1.77 1.83 1.85 1.79 1.76 1.84 1.90 1.99 2.06 2.11 2.04 1.99 1.99 1.82 1.66 1.56 1.50 1.49 1.46 1.49 1.60 1.62 1.52 1.42 1.46
1.60 1.08 0.99 1.07 1.11 1.21 1.45 1.37 1.40 1.42 1.24 1.16 1.19 1.18 1.32 1.56 1.73 1.65 1.58 1.60 1.51 1.45 1.54 1.66 1.78 1.81 1.80 1.78 1.77 1.79 1.82 1.85 2.07 2.14 2.13 1.98 1.79 1.66 1.59 1.53 1.47 1.42 1.38 1.36 1.44 1.48 1.44 1.46 1.49
1.23 1.07 1.03 1.25 1.27 1.26 1.41 1.42 1.43 1.23 1.19 1.11 1.20 1.29 1.41 1.54 1.54 1.42 1.39 1.41 1.38 1.36 1.57 1.70 1.73 1.65 1.70 1.80 1.78 1.75 1.71 1.70 1.77 1.86 1.88 1.86 1.74 1.65 1.58 1.61 1.62 1.60 1.57 1.49 1.48 1.44 1.42 1.42 1.38
1.30 1.11 1.22 1.23 1.43 1.50 1.40 1.40 1.51 1.27 1.01 1.14 1.09 1.12 1.30 1.44 1.46 1.38 1.34 1.39 1.44 1.45 1.66 1.73 1.67 1.66 1.69 1.64 1.67 1.63 1.67 1.68 1.75 1.77 1.82 1.78 1.72 1.79 1.76 1.78 1.88 1.89 1.80 1.63 1.49 1.38 1.40 1.39 1.38
1.07 1.26 1.30 1.26 1.44 1.44 1.37 1.49 1.36 1.38 1.25 1.26 1.21 1.22 1.25 1.33 1.40 1.42 1.40 1.42 1.48 1.60 1.62 1.68 1.67 1.70 1.75 1.69 1.60 1.74 1.80 1.70 1.64 1.68 1.73 1.69 1.59 1.68 1.62 1.57 1.65 1.73 1.73 1.64 1.55 1.48 1.55 1.49 1.46
0.98 1.21 1.23 1.25 1.39 1.48 1.48 1.39 1.34 1.35 1.44 1.48 1.46 1.27 1.24 1.36 1.52 1.55 1.56 1.51 1.56 1.56 1.68 1.77 1.74 1.74 1.67 1.65 1.77 1.81 1.83 1.73 1.64 1.58 1.60 1.64 1.61 1.62 1.59 1.50 1.62 1.71 1.72 1.63 1.52 1.47 1.49 1.44 1.37
1.07 1.14 1.15 1.17 1.20 1.32 1.33 1.37 1.49 1.41 1.52 1.50 1.40 1.24 1.26 1.40 1.44 1.44 1.49 1.52 1.60 1.56 1.68 1.78 1.78 1.76 1.75 1.68 1.80 1.80 1.80 1.76 1.65 1.59 1.61 1.63 1.69 1.62 1.71 1.59 1.54 1.62 1.66 1.59 1.51 1.39 1.42 1.37 1.27
1.21 0.97 1.16 1.25 1.27 1.18 1.37 1.10 1.22 1.43 1.53 1.41 1.27 1.20 1.22 1.41 1.48 1.38 1.43 1.45 1.53 1.71 1.77 1.80 1.83 1.85 1.75 1.81 1.79 1.74 1.73 1.69 1.62 1.65 1.74 1.71 1.61 1.66 1.65 1.56 1.50 1.60 1.62 1.52 1.42 1.34 1.38 1.37 1.29
0.99 1.00 0.85 1.13 1.25 1.23 1.20 0.88 1.20 1.48 1.44 1.39 1.38 1.28 1.25 1.35 1.50 1.46 1.48 1.52 1.65 1.71 1.67 1.78 1.84 1.84 1.85 1.82 1.77 1.77 1.70 1.64 1.62 1.70 1.72 1.76 1.65 1.67 1.60 1.49 1.58 1.71 1.61 1.46 1.37 1.28 1.25 1.20 1.16
0.98 0.77 0.79 0.94 1.21 1.12 1.11 0.95 1.17 1.45 1.42 1.33 1.27 1.25 1.39 1.29 1.43 1.46 1.55 1.60 1.61 1.66 1.64 1.72 1.80 1.75 1.85 1.81 1.80 1.82 1.67 1.61 1.65 1.75 1.79 1.68 1.75 1.74 1.64 1.46 1.60 1.64 1.56 1.36 1.33 1.32 1.30 1.12 1.08
0.67 0.74 0.82 0.80 1.05 1.02 0.97 0.98 1.13 1.27 1.38 1.37 1.32 1.30 1.36 1.36 1.32 1.46 1.51 1.58 1.65 1.61 1.60 1.72 1.71 1.76 1.78 1.79 1.83 1.83 1.67 1.59 1.65 1.70 1.69 1.79 1.67 1.66 1.61 1.60 1.56 1.60 1.50 1.34 1.33 1.34 1.38 1.24 1.23
0.77 0.61 0.73 0.83 0.98 0.93 0.88 0.91 1.03 1.12 1.25 1.28 1.35 1.40 1.37 1.35 1.48 1.40 1.58 1.60 1.62 1.60 1.65 1.67 1.63 1.65 1.73 1.69 1.71 1.70 1.57 1.55 1.54 1.62 1.64 1.78 1.66 1.68 1.67 1.53 1.46 1.46 1.41 1.38 1.37 1.42 1.32 1.22 1.35
0.44 0.48 0.68 0.84 0.95 0.89 0.90 0.89 1.04 1.09 1.13 1.24 1.28 1.36 1.41 1.44 1.40 1.48 1.45 1.62 1.54 1.52 1.60 1.58 1.56 1.55 1.65 1.66 1.80 1.81 1.67 1.62 1.51 1.59 1.69 1.75 1.66 1.72 1.69 1.66 1.49 1.37 1.42 1.61 1.60 1.43 1.29 1.34 1.38
0.35 0.37 0.54 0.69 0.80 0.89 0.86 0.81 0.96 1.13 1.17 1.24 1.32 1.39 1.42 1.47 1.41 1.38 1.36 1.47 1.54 1.55 1.58 1.57 1.58 1.59 1.54 1.67 1.74 1.81 1.74 1.58 1.47 1.52 1.58 1.66 1.69 1.66 1.70 1.70 1.51 1.35 1.53 1.40 1.51 1.37 1.28 1.26 1.40
0.27 0.62 0.71 0.59 0.59 0.52 0.82 0.50 0.71 0.93 1.00 1.12 1.27 1.31 1.38 1.51 1.57 1.49 1.43 1.33 1.39 1.56 1.66 1.62 1.61 1.57 1.57 1.62 1.64 1.59 1.45 1.38 1.45 1.46 1.57 1.64 1.62 1.69 1.85 1.85 1.64 1.33 1.51 1.54 1.69 1.36 1.29 1.36 1.28
0.37 0.68 0.59 0.57 0.58 0.61 0.56 0.53 0.62 0.92 0.90 1.08 1.20 1.31 1.40 1.52 1.53 1.50 1.47 1.44 1.50 1.56 1.66 1.67 1.59 1.56 1.55 1.56 1.53 1.50 1.47 1.53 1.56 1.49 1.58 1.65 1.64 1.71 1.74 1.89 1.65 1.45 1.42 1.62 1.74 1.42 1.32 1.40 1.41
0.59 0.64 0.61 0.61 0.63 0.48 0.50 0.47 0.49 0.71 0.85 1.07 1.26 1.31 1.37 1.46 1.57 1.59 1.61 1.61 1.52 1.57 1.62 1.74 1.59 1.54 1.55 1.57 1.52 1.47 1.45 1.45 1.46 1.45 1.54 1.58 1.62 1.69 1.73 1.79 1.68 1.60 1.56 1.52 1.54 1.57 1.53 1.48 1.41
0.55 0.51 0.38 0.38 0.40 0.35 0.52 0.45 0.54 0.75 0.92 1.03 1.20 1.31 1.35 1.41 1.51 1.59 1.60 1.64 1.59 1.46 1.45 1.65 1.63 1.52 1.53 1.54 1.50 1.49 1.44 1.44 1.45 1.43 1.46 1.49 1.50 1.55 1.55 1.66 1.72 1.58 1.70 1.67 1.65 1.66 1.73 1.59 1.57
0.32 0.39 0.32 0.26 0.28 0.31 0.45 0.32 0.52 0.82 0.96 1.09 1.23 1.34 1.40 1.42 1.49 1.61 1.67 1.65 1.59 1.48 1.42 1.49 1.59 1.56 1.55 1.48 1.45 1.44 1.46 1.45 1.47 1.52 1.52 1.48 1.46 1.51 1.60 1.60 1.59 1.62 1.78 1.73 1.70 1.66 1.63 1.67 1.66
0.30 0.30 0.37 0.32 0.35 0.28 0.37 0.52 0.71 0.77 0.84 0.96 1.07 1.22 1.31 1.42 1.41 1.53 1.65 1.63 1.63 1.58 1.49 1.48 1.55 1.60 1.53 1.53 1.51 1.44 1.46 1.46 1.47 1.57 1.59 1.47 1.47 1.54 1.53 1.56 1.55 1.51 1.57 1.68 1.60 1.53 1.52 1.46 1.48
0.32 0.38 0.31 0.36 0.25 0.24 0.36 0.42 0.46 0.66 0.69 0.86 0.94 1.07 1.24 1.41 1.46 1.49 1.42 1.58 1.65 1.61 1.56 1.66 1.66 1.59 1.58 1.50 1.52 1.53 1.51 1.53 1.53 1.56 1.50 1.46 1.60 1.52 1.53 1.48 1.53 1.52 1.53 1.54 1.51 1.47 1.39 1.36 1.34
0.39 0.36 0.42 0.44 0.41 0.29 0.28 0.33 0.63 0.64 0.72 0.77 0.85 0.91 1.07 1.22 1.40 1.51 1.49 1.58 1.62 1.67 1.67 1.61 1.63 1.61 1.57 1.44 1.44 1.48 1.50 1.54 1.53 1.53 1.71 1.60 1.61 1.52 1.51 1.62 1.64 1.54 1.55 1.56 1.46 1.44 1.44 1.38 1.35
0.54 0.47 0.45 0.35 0.35 0.42 0.40 0.35 0.69 0.71 0.76 0.80 0.86 0.96 1.09 1.20 1.34 1.60 1.53 1.52 1.52 1.66 1.66 1.71 1.63 1.66 1.60 1.53 1.47 1.40 1.49 1.55 1.53 1.49 1.56 1.69 1.64 1.63 1.64 1.79 1.81 1.69 1.64 1.67 1.52 1.46 1.54 1.46 1.41

GFSSGP_prec_pwat_150.txt.gz
Precipitable_Water
1.79 2.05 2.01 1.56 0.96 0.95 0.75 0.81 1.04 0.94 0.98 1.11 1.18 1.13 1.03 1.06 0.94 0.74 1.58 1.68 1.81 1.96 2.09 2.10 2.07 2.02 2.06 2.01 2.07 2.06 2.11 2.17 2.14 2.13 2.07 1.99 1.96 1.72 1.70 1.73 1.79 1.76 1.76 1.75 1.73 1.70 1.68 1.62 1.69
1.73 1.83 1.77 1.30 0.74 0.68 0.69 0.93 0.92 0.99 1.09 1.13 1.12 1.16 1.09 1.00 1.26 1.32 1.37 1.58 1.77 1.95 2.08 2.03 2.02 2.05 2.06 2.03 2.06 2.10 2.10 2.16 2.23 2.14 1.96 1.85 1.72 1.73 1.82 1.77 1.74 1.76 1.81 1.84 1.81 1.88 1.88 1.84 1.76
1.91 1.77 1.31 1.06 0.83 0.73 0.73 0.94 1.02 1.09 1.14 1.05 1.03 1.25 1.17 1.08 1.26 1.31 1.51 1.54 1.61 1.65 1.77 1.86 1.94 2.05 2.10 2.15 2.19 2.20 2.16 2.17 2.13 2.04 1.85 1.78 1.80 1.88 1.91 1.93 1.99 1.92 1.91 1.95 1.95 1.91 2.01 1.98 1.77
1.79 1.62 1.39 1.01 0.88 0.97 0.95 1.02 1.11 1.08 1.08 1.10 1.10 0.98 1.25 1.37 1.31 1.45 1.53 1.51 1.46 1.48 1.66 1.93 1.98 1.98 1.99 2.06 2.08 2.04 2.00 2.09 1.94 1.93 1.90 1.87 1.95 2.06 2.06 2.03 2.03 2.06 2.01 1.94 1.89 1.99 1.96 1.79 1.65
1.79 1.41 1.00 0.95 0.98 1.09 1.19 1.22 1.17 1.05 1.00 0.98 1.02 0.90 1.04 1.38 1.52 1.51 1.44 1.49 1.37 1.38 1.56 1.79 1.81 1.88 1.92 2.05 2.04 2.06 1.99 1.98 2.07 2.09 2.09 2.06 2.16 2.23 2.23 2.17 2.15 2.10 1.90 1.78 1.94 1.98 1.85 1.65 1.50
1.35 1.35 0.95 0.88 1.02 1.19 1.28 1.29 1.28 1.14 1.08 0.98 0.98 1.00 1.13 1.52 1.46 1.50 1.51 1.42 1.50 1.44 1.54 1.67 1.76 1.76 1.78 1.91 1.90 1.95 1.89 1.97 2.15 2.17 2.22 2.30 2.22 2.08 2.02 1.91 1.92 1.95 1.73 1.76 1.91 1.86 1.71 1.48 1.40
1.25 1.18 1.03 1.05 1.06 1.14 1.24 1.46 1.26 1.20 1.11 0.99 1.11 0.95 1.19 1.43 1.55 1.59 1.52 1.50 1.46 1.54 1.45 1.54 1.69 1.74 1.83 1.92 1.90 1.88 1.90 2.05 2.11 2.17 2.11 2.02 2.01 1.93 1.89 1.74 1.71 1.69 1.65 1.84 1.88 1.74 1.51 1.44 1.48
1.34 1.26 1.08 1.10 1.04 1.08 1.36 1.41 1.44 1.23 1.10 1.22 1.21 0.93 0.97 1.38 1.59 1.66 1.62 1.48 1.50 1.51 1.53 1.53 1.71 1.76 1.82 1.91 1.93 1.94 2.02 2.09 2.10 2.03 2.00 2.03 1.96 1.72 1.65 1.62 1.62 1.58 1.57 1.70 1.78 1.59 1.46 1.47 1.46
1.53 1.07 0.93 1.04 1.07 1.14 1.40 1.34 1.42 1.41 1.17 1.13 1.21 1.20 1.29 1.57 1.62 1.54 1.50 1.47 1.46 1.41 1.40 1.65 1.73 1.79 1.75 1.77 1.83 1.94 2.03 2.12 2.11 2.01 2.02 1.90 1.72 1.64 1.55 1.56 1.52 1.47 1.49 1.55 1.51 1.42 1.44 1.45 1.42
1.22 1.05 1.04 1.26 1.27 1.23 1.40 1.42 1.40 1.25 1.16 1.09 1.09 1.26 1.43 1.53 1.44 1.41 1.33 1.34 1.35 1.28 1.45 1.68 1.76 1.76 1.73 1.71 1.80 1.81 1.92 2.09 2.17 2.13 1.87 1.69 1.59 1.57 1.54 1.53 1.47 1.44 1.46 1.52 1.45 1.47 1.46 1.37 1.30
1.21 1.04 1.22 1.25 1.33 1.42 1.42 1.43 1.50 1.26 1.01 1.10 1.00 1.11 1.34 1.42 1.39 1.37 1.31 1.35 1.32 1.45 1.59 1.66 1.67 1.62 1.68 1.68 1.63 1.65 1.68 1.78 1.91 1.91 1.77 1.65 1.64 1.58 1.61 1.71 1.71 1.65 1.59 1.45 1.37 1.38 1.36 1.31 1.30
1.02 1.20 1.24 1.23 1.47 1.48 1.39 1.49 1.41 1.35 1.16 1.24 1.19 1.20 1.29 1.37 1.31 1.28 1.29 1.40 1.44 1.53 1.61 1.70 1.62 1.58 1.59 1.64 1.55 1.53 1.56 1.70 1.77 1.80 1.73 1.74 1.71 1.70 1.67 1.72 1.76 1.68 1.57 1.45 1.44 1.45 1.43 1.39 1.36
0.97 1.13 1.19 1.23 1.39 1.47 1.52 1.37 1.33 1.36 1.38 1.42 1.31 1.23 1.28 1.36 1.36 1.42 1.45 1.45 1.50 1.50 1.66 1.72 1.64 1.69 1.69 1.57 1.59 1.73 1.64 1.62 1.68 1.71 1.71 1.75 1.70 1.61 1.58 1.61 1.66 1.66 1.60 1.42 1.39 1.39 1.38 1.31 1.26
1.07 1.14 1.11 1.18 1.24 1.40 1.32 1.32 1.37 1.39 1.54 1.43 1.31 1.17 1.30 1.41 1.39 1.45 1.44 1.45 1.47 1.49 1.59 1.78 1.70 1.75 1.66 1.61 1.68 1.76 1.71 1.64 1.60 1.56 1.56 1.71 1.72 1.69 1.63 1.60 1.61 1.66 1.62 1.44 1.32 1.35 1.34 1.25 1.23
1.17 0.99 1.15 1.27 1.23 1.19 1.32 1.11 1.22 1.46 1.51 1.41 1.21 1.17 1.30 1.42 1.45 1.38 1.45 1.45 1.47 1.62 1.72 1.72 1.76 1.77 1.67 1.68 1.78 1.79 1.73 1.64 1.55 1.53 1.60 1.62 1.68 1.74 1.67 1.55 1.55 1.62 1.58 1.49 1.33 1.31 1.34 1.27 1.22
0.95 0.97 0.80 1.12 1.24 1.25 1.20 0.90 1.20 1.51 1.44 1.27 1.26 1.19 1.21 1.42 1.42 1.44 1.52 1.54 1.63 1.71 1.69 1.76 1.82 1.81 1.74 1.74 1.78 1.71 1.65 1.67 1.63 1.64 1.68 1.66 1.59 1.74 1.67 1.55 1.56 1.60 1.53 1.47 1.31 1.27 1.24 1.22 1.16
0.89 0.70 0.77 0.93 1.24 1.20 1.14 0.93 1.20 1.48 1.42 1.33 1.34 1.27 1.30 1.42 1.46 1.48 1.53 1.59 1.64 1.75 1.72 1.74 1.80 1.78 1.79 1.83 1.82 1.74 1.66 1.61 1.62 1.67 1.79 1.68 1.65 1.65 1.59 1.53 1.62 1.62 1.50 1.38 1.30 1.27 1.30 1.14 1.11
0.65 0.69 0.79 0.83 1.02 1.07 0.99 0.94 1.16 1.33 1.42 1.38 1.36 1.33 1.35 1.31 1.29 1.42 1.51 1.65 1.64 1.67 1.70 1.72 1.80 1.83 1.91 1.83 1.74 1.73 1.64 1.61 1.68 1.68 1.67 1.71 1.82 1.68 1.63 1.49 1.58 1.58 1.51 1.33 1.35 1.34 1.33 1.20 1.16
0.68 0.69 0.63 0.83 1.03 0.94 0.91 0.89 1.01 1.18 1.31 1.34 1.34 1.35 1.35 1.36 1.36 1.43 1.55 1.59 1.60 1.62 1.63 1.66 1.68 1.79 1.79 1.77 1.65 1.64 1.52 1.52 1.56 1.69 1.73 1.69 1.70 1.73 1.64 1.58 1.49 1.55 1.46 1.32 1.38 1.43 1.34 1.26 1.33
0.46 0.42 0.51 0.81 0.96 0.89 0.88 0.88 1.04 1.09 1.16 1.28 1.31 1.37 1.40 1.46 1.40 1.43 1.44 1.58 1.55 1.54 1.57 1.59 1.64 1.72 1.71 1.69 1.70 1.69 1.60 1.58 1.54 1.62 1.63 1.76 1.71 1.67 1.61 1.57 1.44 1.45 1.38 1.35 1.35 1.39 1.32 1.30 1.38
0.42 0.37 0.42 0.55 0.87 0.93 0.83 0.76 0.92 1.10 1.16 1.23 1.31 1.37 1.43 1.44 1.44 1.43 1.45 1.44 1.51 1.46 1.52 1.56 1.59 1.64 1.66 1.69 1.74 1.73 1.68 1.66 1.49 1.51 1.57 1.72 1.71 1.76 1.71 1.63 1.55 1.35 1.40 1.42 1.58 1.40 1.33 1.22 1.32
0.34 0.33 0.49 0.59 0.65 0.49 0.78 0.49 0.74 0.98 1.03 1.11 1.18 1.26 1.33 1.47 1.54 1.55 1.44 1.43 1.48 1.52 1.60 1.62 1.65 1.56 1.60 1.68 1.66 1.71 1.59 1.47 1.44 1.41 1.53 1.68 1.71 1.67 1.71 1.76 1.61 1.41 1.39 1.47 1.54 1.48 1.38 1.34 1.23
0.30 0.41 0.59 0.67 0.58 0.55 0.61 0.56 0.61 0.86 0.87 1.02 1.15 1.28 1.35 1.44 1.55 1.52 1.52 1.44 1.44 1.59 1.62 1.63 1.62 1.59 1.61 1.57 1.64 1.66 1.57 1.47 1.48 1.43 1.47 1.57 1.68 1.66 1.74 1.81 1.72 1.50 1.40 1.47 1.60 1.65 1.47 1.42 1.34
0.49 0.55 0.61 0.59 0.58 0.46 0.53 0.52 0.44 0.64 0.79 0.95 1.12 1.28 1.40 1.47 1.52 1.60 1.65 1.59 1.52 1.63 1.66 1.66 1.58 1.56 1.58 1.52 1.57 1.54 1.45 1.45 1.43 1.45 1.45 1.54 1.62 1.62 1.68 1.81 1.81 1.59 1.41 1.40 1.52 1.73 1.58 1.39 1.35
0.54 0.55 0.39 0.33 0.38 0.37 0.54 0.49 0.46 0.66 0.80 0.89 0.98 1.22 1.38 1.46 1.49 1.54 1.60 1.59 1.55 1.54 1.58 1.58 1.66 1.52 1.56 1.50 1.50 1.49 1.49 1.50 1.48 1.50 1.44 1.53 1.59 1.60 1.63 1.67 1.67 1.61 1.56 1.53 1.56 1.63 1.68 1.56 1.48
0.50 0.56 0.37 0.25 0.27 0.31 0.45 0.37 0.39 0.69 0.85 0.94 1.03 1.16 1.33 1.42 1.49 1.51 1.56 1.65 1.64 1.66 1.55 1.51 1.65 1.57 1.53 1.51 1.48 1.54 1.53 1.50 1.48 1.48 1.44 1.44 1.56 1.58 1.67 1.70 1.65 1.70 1.61 1.70 1.72 1.75 1.69 1.77 1.77
0.32 0.29 0.42 0.34 0.37 0.30 0.33 0.44 0.60 0.70 0.75 0.83 0.91 1.03 1.19 1.34 1.44 1.53 1.60 1.67 1.73 1.71 1.58 1.43 1.53 1.62 1.56 1.50 1.46 1.49 1.52 1.50 1.44 1.45 1.52 1.53 1.55 1.56 1.63 1.68 1.65 1.63 1.63 1.76 1.76 1.66 1.65 1.66 1.60
0.32 0.38 0.29 0.34 0.24 0.22 0.31 0.36 0.35 0.52 0.64 0.74 0.78 0.86 1.02 1.31 1.42 1.49 1.55 1.68 1.78 1.72 1.62 1.60 1.52 1.64 1.62 1.56 1.49 1.46 1.46 1.46 1.47 1.48 1.48 1.54 1.57 1.51 1.51 1.53 1.52 1.55 1.55 1.60 1.72 1.65 1.61 1.53 1.49
0.36 0.35 0.40 0.40 0.37 0.26 0.24 0.30 0.55 0.58 0.63 0.66 0.71 0.80 0.89 1.04 1.19 1.36 1.49 1.63 1.74 1.74 1.69 1.59 1.50 1.66 1.64 1.60 1.54 1.52 1.49 1.48 1.49 1.50 1.52 1.55 1.54 1.51 1.57 1.49 1.48 1.48 1.56 1.60 1.55 1.53 1.58 1.52 1.45
0.45 0.42 0.43 0.31 0.32 0.39 0.36 0.34 0.68 0.67 0.67 0.68 0.71 0.82 1.00 1.10 1.19 1.31 1.45 1.59 1.54 1.65 1.70 1.56 1.53 1.55 1.69 1.64 1.56 1.49 1.52 1.51 1.50 1.50 1.54 1.64 1.56 1.62 1.56 1.49 1.51 1.54 1.57 1.58 1.57 1.50 1.44 1.38 1.38